Voltar ao catálogo

COSMOS 1375 DEB

AtivoLEO
NORAD 18414·DEBRIS·🇷🇺 Russia

Lançado Jun 6, 1982 de Plesetsk Cosmodrome

Loading…

Próximas Passagens (próximas 24 horas)

TLE

AtualizadoSource: Space-Track

Época: Sep 14, 2026, 17:34 UTC

1 18414U 82055BD  26257.73237605  .00000193  00000-0  25314-3 0  9994
2 18414  65.8330   1.2777 0023231 230.0192 281.2094 13.82450464 57563

Acompanhe COSMOS 1375 DEB em tempo real com AllMySat

Download on the App Store